FW9201 Weather Reports


Display with metric or nautical units.
time (UTC)temp
F
wind
direction
speed
MPH
gust
MPH
rain 1hr
in
rain 24hr
in
rain mn
in
humidity
%
barometer
mb
20260502225137 70 281 1.0 3.0 0.00 0.00 0.00 31 1015.2
20260502224632 69 214 0.0 0.0 0.00 0.00 0.00 31 1015.7
20260502224129 69 173 0.0 0.0 0.00 0.00 0.00 34 1015.3
20260502223627 68 238 0.0 0.0 0.00 0.00 0.00 32 1015.3
20260502223125 68 91 0.0 1.0 0.00 0.00 0.00 32 1015.7
20260502222622 68 104 0.0 0.0 0.00 0.00 0.00 33 1015.7
20260502222119 68 199 0.0 0.0 0.00 0.00 0.00 32 1015.7
20260502221614 68 87 1.0 2.0 0.00 0.00 0.00 32 1015.8
20260502221112 67 258 0.0 0.0 0.00 0.00 0.00 33 1015.9
20260502220608 67 266 1.0 2.0 0.00 0.00 0.00 34 1015.9
20260502220104 69 341 7.0 8.0 0.00 0.00 0.00 35 1015.8
20260502215602 67 252 2.0 3.0 0.00 0.00 0.00 35 1016.0
20260502215058 68 158 7.0 9.0 0.00 0.00 0.00 32 1016.1
20260502214555 68 175 0.0 3.0 0.00 0.00 0.00 32 1016.1
20260502214053 68 241 0.0 1.0 0.00 0.00 0.00 33 1016.3
20260502213549 66 265 2.0 2.0 0.00 0.00 0.00 33 1016.5
20260502213047 66 330 0.0 0.0 0.00 0.00 0.00 33 1016.3
20260502212546 68 159 4.0 5.0 0.00 0.00 0.00 34 1016.5
20260502212043 68 255 0.0 0.0 0.00 0.00 0.00 34 1016.4
20260502211538 68 264 0.0 0.0 0.00 0.00 0.00 33 1016.3
20260502211036 67 110 0.0 1.0 0.00 0.00 0.00 34 1016.8
20260502210533 67 285 4.0 6.0 0.00 0.00 0.00 35 1016.7
20260502210030 67 13 10.0 13.0 0.00 0.00 0.00 35 1016.4
20260502205526 66 247 2.0 5.0 0.00 0.00 0.00 37 1016.7
20260502205024 67 274 5.0 8.0 0.00 0.00 0.00 36 1016.8
20260502204521 67 255 3.0 6.0 0.00 0.00 0.00 34 1016.8
20260502204019 68 274 0.0 1.0 0.00 0.00 0.00 34 1016.8
20260502203515 67 231 0.0 0.0 0.00 0.00 0.00 35 1017.1
20260502203012 68 259 0.0 0.0 0.00 0.00 0.00 37 1017.0
20260502202508 66 163 0.0 0.0 0.00 0.00 0.00 35 1017.2
20260502202007 66 151 8.0 9.0 0.00 0.00 0.00 35 1017.1
20260502201502 66 150 4.0 6.0 0.00 0.00 0.00 37 1017.1
20260502200959 66 154 7.0 8.0 0.00 0.00 0.00 36 1017.3
20260502200455 66 152 8.0 10.0 0.00 0.00 0.00 36 1017.3
20260502195953 66 160 2.0 3.0 0.00 0.00 0.00 34 1017.5
20260502195450 66 142 7.0 8.0 0.00 0.00 0.00 35 1017.7
20260502194946 64 199 0.0 0.0 0.00 0.00 0.00 36 1017.7
20260502194443 64 165 6.0 7.0 0.00 0.00 0.00 37 1017.8
20260502193938 65 154 6.0 11.0 0.00 0.00 0.00 38 1017.9
20260502193436 64 168 7.0 8.0 0.00 0.00 0.00 40 1018.1
20260502192932 64 162 5.0 6.0 0.00 0.00 0.00 38 1018.0
20260502192429 65 164 6.0 8.0 0.00 0.00 0.00 39 1018.0
20260502191925 66 162 6.0 7.0 0.00 0.00 0.00 38 1018.1
20260502191423 66 178 2.0 3.0 0.00 0.00 0.00 38 1018.2
20260502190921 65 154 3.0 6.0 0.00 0.00 0.00 38 1018.2
20260502190418 64 163 0.0 0.0 0.00 0.00 0.00 41 1018.2
20260502185914 65 271 4.0 6.0 0.00 0.00 0.00 39 1018.5
20260502185409 64 72 1.0 3.0 0.00 0.00 0.00 39 1018.3
20260502184907 64 183 0.0 0.0 0.00 0.00 0.00 38 1018.4
20260502184402 64 174 0.0 0.0 0.00 0.00 0.00 38 1018.3
20260502183859 64 150 9.0 10.0 0.00 0.00 0.00 39 1018.5
20260502183355 63 168 6.0 8.0 0.00 0.00 0.00 38 1018.7
20260502182850 64 135 5.0 6.0 0.00 0.00 0.00 41 1018.7
20260502182347 62 111 7.0 9.0 0.00 0.00 0.00 43 1018.5
20260502181843 62 115 6.0 7.0 0.00 0.00 0.00 43 1018.7
20260502181342 62 140 6.0 7.0 0.00 0.00 0.00 43 1019.0
20260502180839 62 110 8.0 10.0 0.00 0.00 0.00 41 1019.0
20260502180336 62 156 1.0 2.0 0.00 0.00 0.00 45 1018.9
20260502170255 60 163 7.0 9.0 0.00 0.00 0.00 44 1019.2
20260502164242 59 180 0.0 0.0 0.00 0.00 0.00 45 1019.5
20260502163738 59 164 2.0 5.0 0.00 0.00 0.00 48 1019.8
20260502163234 58 166 2.0 3.0 0.00 0.00 0.00 50 1019.4
20260502162731 59 134 4.0 5.0 0.00 0.00 0.00 46 1019.4
20260502162223 58 146 7.0 8.0 0.00 0.00 0.00 48 1019.2
20260502161720 57 172 7.0 9.0 0.00 0.00 0.00 48 1019.5
20260502161216 57 131 9.0 10.0 0.00 0.00 0.00 49 1019.5
20260502160715 57 151 6.0 7.0 0.00 0.00 0.00 50 1019.7
20260502160214 57 179 1.0 5.0 0.00 0.00 0.00 51 1019.9
20260502152132 54 148 4.0 7.0 0.00 0.00 0.00 52 1020.0
20260502151630 53 168 4.0 5.0 0.00 0.00 0.00 52 1020.0
20260502151127 53 158 7.0 7.0 0.00 0.00 0.00 53 1019.9
20260502150624 52 148 8.0 9.0 0.00 0.00 0.00 54 1019.9
20260502150120 51 193 0.0 0.0 0.00 0.00 0.00 57 1020.1
20260502130509 38 217 0.0 0.0 0.00 0.00 0.00 76 1019.9
20260502123452 36 218 0.0 0.0 0.00 0.00 0.00 78 1019.5
20260502122949 37 218 0.0 0.0 0.00 0.00 0.00 78 1019.5
20260502122445 36 227 0.0 0.0 0.00 0.00 0.00 78 1019.4
20260502121943 36 231 0.0 0.0 0.00 0.00 0.00 78 1019.3
20260502121440 36 221 0.0 0.0 0.00 0.00 0.00 78 1019.3
20260502120938 37 241 0.0 0.0 0.00 0.00 0.00 76 1018.8
20260502120433 37 209 0.0 0.0 0.00 0.00 0.00 76 1018.9
20260502115931 37 230 0.0 0.0 0.00 0.00 0.00 76 1018.7
20260502115428 37 234 0.0 0.0 0.00 0.00 0.00 77 1018.9
20260502114924 38 208 0.0 0.0 0.00 0.00 0.00 75 1018.7
20260502114421 37 169 0.0 0.0 0.00 0.00 0.00 76 1018.8
20260502113918 36 222 0.0 0.0 0.00 0.00 0.00 79 1018.7
20260502113416 36 175 5.0 6.0 0.00 0.00 0.00 79 1018.7
20260502112914 36 221 0.0 0.0 0.00 0.00 0.00 78 1018.3
20260502112411 36 221 0.0 0.0 0.00 0.00 0.00 78 1018.0
20260502111909 37 220 0.0 0.0 0.00 0.00 0.00 77 1018.0
20260502111406 37 214 0.0 0.0 0.00 0.00 0.00 75 1017.9
20260502110903 37 217 0.0 0.0 0.00 0.00 0.00 75 1017.8
20260502110401 38 219 0.0 0.0 0.00 0.00 0.00 74 1017.8
20260502105858 38 221 0.0 0.0 0.00 0.00 0.00 74 1017.8
20260502105355 37 221 0.0 0.0 0.00 0.00 0.00 75 1017.5
20260502104853 37 222 0.0 0.0 0.00 0.00 0.00 75 1017.7
20260502104350 37 222 0.0 0.0 0.00 0.00 0.00 75 1017.5
20260502103847 37 221 0.0 0.0 0.00 0.00 0.00 73 1017.4
20260502103345 38 221 0.0 0.0 0.00 0.00 0.00 73 1017.4
20260502102841 38 221 0.0 0.0 0.00 0.00 0.00 74 1017.7
20260502102338 37 221 0.0 0.0 0.00 0.00 0.00 74 1017.7
20260502101836 37 221 0.0 0.0 0.00 0.00 0.00 73 1017.4
20260502101334 37 221 0.0 0.0 0.00 0.00 0.00 73 1017.4
20260502100832 38 220 0.0 0.0 0.00 0.00 0.00 73 1017.4
20260502100331 38 222 0.0 0.0 0.00 0.00 0.00 73 1017.4
20260502091304 39 225 0.0 0.0 0.00 0.00 0.00 69 1016.9
20260502090802 39 224 0.0 0.0 0.00 0.00 0.00 69 1017.0
20260502090258 40 220 0.0 0.0 0.00 0.00 0.00 68 1017.0
20260502071159 44 219 0.0 0.0 0.00 0.00 0.00 59 1016.8
20260502070657 44 220 0.0 0.0 0.00 0.00 0.00 58 1016.7
20260502070155 44 220 0.0 0.0 0.00 0.00 0.00 58 1016.9
20260502065653 44 220 0.0 0.0 0.00 0.00 0.00 56 1016.9
20260502065150 45 220 0.0 0.0 0.00 0.00 0.00 56 1016.8
20260502064649 45 226 0.0 0.0 0.00 0.00 0.00 54 1016.8
20260502064145 45 229 0.0 0.0 0.00 0.00 0.00 56 1016.7
20260502063643 45 232 0.0 0.0 0.00 0.00 0.00 55 1016.7
20260502063141 45 232 0.0 0.0 0.00 0.00 0.00 55 1016.5
20260502062637 45 232 0.0 0.0 0.00 0.00 0.00 55 1016.5
20260502062135 46 215 0.0 0.0 0.00 0.00 0.00 53 1016.4
20260502061633 46 213 0.0 0.0 0.00 0.00 0.00 53 1016.7
20260502061131 46 214 0.0 0.0 0.00 0.00 0.00 53 1016.5
20260502060630 47 216 0.0 0.0 0.00 0.00 0.00 51 1016.3
20260502060127 47 231 0.0 0.0 0.00 0.00 0.00 48 1016.3
20260502055625 47 230 0.0 0.0 0.00 0.00 0.00 49 1016.3
20260502055123 47 234 0.0 0.0 0.00 0.00 0.00 51 1016.0
20260502054622 48 236 0.0 0.0 0.00 0.00 0.00 49 1016.1
20260502054119 48 232 0.0 0.0 0.00 0.00 0.00 48 1016.2
20260502053616 48 234 0.0 0.0 0.00 0.00 0.00 50 1016.1
20260502053113 49 217 0.0 0.0 0.00 0.00 0.00 45 1016.2
20260502052612 49 226 0.0 0.0 0.00 0.00 0.00 47 1016.3
20260502052110 49 227 0.0 0.0 0.00 0.00 0.00 45 1016.3
20260502051607 50 225 0.0 0.0 0.00 0.00 0.00 45 1016.0
20260502051105 50 225 0.0 0.0 0.00 0.00 0.00 45 1016.1
20260502050601 49 230 0.0 0.0 0.00 0.00 0.00 43 1016.1
20260502050058 48 244 0.0 0.0 0.00 0.00 0.00 48 1016.2
20260502045554 50 237 0.0 0.0 0.00 0.00 0.00 48 1016.2
20260502045052 50 229 0.0 0.0 0.00 0.00 0.00 45 1016.2
20260502044548 51 229 0.0 0.0 0.00 0.00 0.00 40 1016.2
20260502044045 51 232 0.0 0.0 0.00 0.00 0.00 42 1016.0
20260502043542 51 239 0.0 0.0 0.00 0.00 0.00 44 1016.2
20260502043038 53 223 0.0 0.0 0.00 0.00 0.00 40 1016.2
20260502042533 53 236 0.0 0.0 0.00 0.00 0.00 40 1015.8
20260502042031 54 224 0.0 0.0 0.00 0.00 0.00 39 1016.0
20260502041529 54 231 0.0 0.0 0.00 0.00 0.00 37 1016.1
20260502041026 54 239 0.0 0.0 0.00 0.00 0.00 38 1015.9
20260502040522 54 257 0.0 0.0 0.00 0.00 0.00 38 1015.9
20260502040020 54 259 0.0 0.0 0.00 0.00 0.00 37 1015.9
20260502035515 54 246 0.0 0.0 0.00 0.00 0.00 37 1016.0
20260502035013 54 240 0.0 0.0 0.00 0.00 0.00 38 1016.0
20260502034511 55 254 0.0 0.0 0.00 0.00 0.00 37 1016.0
20260502034009 56 259 0.0 0.0 0.00 0.00 0.00 34 1015.7
20260502033507 55 243 0.0 0.0 0.00 0.00 0.00 35 1015.5
20260502033004 56 224 0.0 0.0 0.00 0.00 0.00 35 1015.5
20260502032459 57 235 0.0 0.0 0.00 0.00 0.00 32 1015.7
20260502031956 56 250 0.0 0.0 0.00 0.00 0.00 33 1015.4
20260502031455 56 262 0.0 0.0 0.00 0.00 0.00 33 1015.4
20260502030953 56 258 0.0 0.0 0.00 0.00 0.00 34 1015.4
20260502030451 57 252 0.0 0.0 0.00 0.00 0.00 34 1015.3
20260502025948 57 238 0.0 0.0 0.00 0.00 0.00 33 1015.2
20260502025445 57 249 0.0 0.0 0.00 0.00 0.00 34 1015.0
20260502024943 58 252 0.0 0.0 0.00 0.00 0.00 34 1014.9
20260502024441 58 273 0.0 0.0 0.00 0.00 0.00 32 1014.8
20260502023939 60 261 0.0 0.0 0.00 0.00 0.00 31 1014.9
20260502023436 61 236 0.0 0.0 0.00 0.00 0.00 30 1014.8
20260502022933 65 235 0.0 0.0 0.00 0.00 0.00 24 1015.0
20260502022429 67 240 0.0 0.0 0.00 0.00 0.00 20 1014.6
20260502021927 69 205 0.0 0.0 0.00 0.00 0.00 16 1014.8
20260502021424 69 87 0.0 2.0 0.00 0.00 0.00 17 1014.9
20260502020921 68 183 0.0 0.0 0.00 0.00 0.00 17 1014.5
20260502020419 69 212 0.0 0.0 0.00 0.00 0.00 19 1014.8
20260502015915 70 224 0.0 0.0 0.00 0.00 0.00 16 1014.8
20260502015413 70 334 4.0 6.0 0.00 0.00 0.00 15 1014.4
20260502014910 71 187 0.0 1.0 0.00 0.00 0.00 15 1014.6
20260502014406 70 166 0.0 0.0 0.00 0.00 0.00 15 1014.4
20260502013903 71 157 6.0 9.0 0.00 0.00 0.00 17 1014.5
20260502013358 71 160 1.0 2.0 0.00 0.00 0.00 16 1014.3
20260502012855 71 161 5.0 8.0 0.00 0.00 0.00 16 1014.5
20260502012353 71 140 3.0 6.0 0.00 0.00 0.00 17 1014.6
20260502011850 71 159 0.0 2.0 0.00 0.00 0.00 20 1014.3
20260502011346 71 160 1.0 1.0 0.00 0.00 0.00 19 1014.3
20260502010843 71 195 1.0 2.0 0.00 0.00 0.00 18 1014.5
20260502010340 71 207 0.0 1.0 0.00 0.00 0.00 18 1014.8
20260502005837 71 180 2.0 3.0 0.00 0.00 0.00 17 1014.4
20260502005335 71 190 0.0 0.0 0.00 0.00 0.00 16 1014.6
20260502004832 71 110 9.0 11.0 0.00 0.00 0.00 17 1014.5
20260502004328 71 150 9.0 10.0 0.00 0.00 0.00 18 1014.5
20260502003826 71 159 2.0 3.0 0.00 0.00 0.00 16 1014.5
20260502003323 71 185 1.0 2.0 0.00 0.00 0.00 15 1014.8
20260502002819 72 143 3.0 5.0 0.00 0.00 0.00 16 1014.8
20260502002316 72 176 4.0 5.0 0.00 0.00 0.00 16 1014.8
20260502001813 72 113 5.0 6.0 0.00 0.00 0.00 15 1014.6
20260502001311 72 161 5.0 7.0 0.00 0.00 0.00 15 1014.8
20260502000808 72 160 10.0 11.0 0.00 0.00 0.00 14 1014.8
20260502000306 72 120 5.0 6.0 0.00 0.00 0.00 14 1014.8
20260501235802 72 124 5.0 6.0 0.00 0.00 0.00 15 1014.9
20260501235258 72 194 0.0 0.0 0.00 0.00 0.00 15 1015.0
20260501234753 72 142 7.0 9.0 0.00 0.00 0.00 15 1015.3
20260501234251 73 170 0.0 0.0 0.00 0.00 0.00 13 1015.1
20260501233749 73 134 5.0 7.0 0.00 0.00 0.00 12 1015.1
20260501233246 73 176 0.0 2.0 0.00 0.00 0.00 16 1014.9
20260501232742 72 138 9.0 10.0 0.00 0.00 0.00 16 1014.8
20260501232239 72 154 5.0 9.0 0.00 0.00 0.00 15 1014.9
20260501231737 72 167 7.0 9.0 0.00 0.00 0.00 15 1015.1
20260501231235 73 147 11.0 13.0 0.00 0.00 0.00 12 1015.2
20260501230733 72 177 5.0 7.0 0.00 0.00 0.00 14 1015.0
20260501230231 73 98 9.0 11.0 0.00 0.00 0.00 15 1015.0
20260501225729 73 146 7.0 8.0 0.00 0.00 0.00 15 1015.2